Regional Weather Roundup
Issued by NWS

Home | Current Version | Previous Version | Text Only | Print | Product List | Glossary On
Versions: 1 2 3 4 5 6 7 8 9 10 11 12 13 14 15 16 17 18 19 20 21 22 23 24 25 26 27 28 29 30 31 32 33 34 35 36 37 38 39 40 41 42 43 44 45 46 47 48 49 50
000
ASUS45 KABQ 221010
RWRNM
WEATHER ROUNDUP FOR NEW MEXICO
NATIONAL WEATHER SERVICE ALBUQUERQUE NM
400 AM MDT WED OCT 22 2014

NOTE: "FAIR" MEANS FEW OR NO CLOUDS BELOW 12,000 FEET AGL WITH NO
       SIGNIFICANT WEATHER OR OBSTRUCTIONS TO VISION.

      THIS PRODUCT IS RELEASED AS TWO VERSIONS.  ONE VERSION NEAR
      THE TOP OF THE HOUR CONTAINING PRELIMINARY DATA FROM ALBUQUERQUE
      AND OTHER STATIONS.  A FINAL VERSION WITH ADDITIONAL DATA IS
      ISSUED ABOUT 10 MINUTES AFTER THE HOUR.

NMZ501-503-504-510>518-221100-
NORTHWEST PLATEAU/NORTHCENTRAL MOUNTAINS

CITY           SKY/WX    TMP DP  RH WIND       PRES   REMARKS
FARMINGTON     CLEAR     46  41  82 E7        30.09F
LOS ALAMOS     CLEAR     48  44  84 CALM      30.19S
SANTA FE       PTCLDY    49  46  90 VRB3      30.15F
TAOS           MOCLDY    46  39  76 NE6       30.19S
ANGEL FIRE     LGT RAIN  43  40  89 NE7       30.23R

$$
NMZ402-403-502-505>509-221100-
WESTCENTRAL MOUNTAINS/SOUTHWEST MOUNTAINS

CITY           SKY/WX    TMP DP  RH WIND       PRES   REMARKS
GALLUP         CLEAR     40  38  93 NE3       30.16S
GRANTS         CLEAR     39  39 100 W5        30.19R
SILVER CITY    CLEAR     50  48  93 NE7       30.14S

$$
NMZ407-409-411-412-221100-
SOUTHERN DESERTS

CITY           SKY/WX    TMP DP  RH WIND       PRES   REMARKS
LORDSBURG      FAIR      54  50  87 MISG      30.07R
DEMING         CLEAR     52  51  97 NE6       30.08R
LAS CRUCES     CLEAR     55  53  91 E3        30.09F
HOLLOMAN AFB   PTCLDY    53  50  91 NE6       30.08S
T OR C         CLOUDY    53  50  89 W3        30.10S

$$
NMZ519>523-221100-
CENTRAL VALLEYS/CENTRAL HIGHLANDS

CITY           SKY/WX    TMP DP  RH WIND       PRES   REMARKS
ALBUQUERQUE    PTCLDY    53  47  79 SE8       30.12S
DOUBLE EAGLE   PTCLDY    48  46  93 CALM      30.13R
MORIARTY ARPT  FOG       44  43  95 CALM      30.17S VSB 1/2
CLINES CORNERS MOCLDY    47  45  93 SW12      30.16F
BELEN          NOT AVBL
SOCORRO        FAIR      53  50  91 S8        30.11S

$$
NMZ524>526-539-540-221100-
SOUTHCENTRAL MOUNTAINS

CITY           SKY/WX    TMP DP  RH WIND       PRES   REMARKS
RUIDOSO        PTCLDY    43  43 100 W6        30.21S

$$
NMZ527>531-221100-
NORTHEAST HIGHLANDS/NORTHEAST PLAINS

CITY           SKY/WX    TMP DP  RH WIND       PRES   REMARKS
LAS VEGAS      CLOUDY    48  46  93 S13       30.14F
RATON          CLOUDY    50  48  93 S5        30.10R
CLAYTON        CLOUDY    55  51  86 S15       30.05S

$$
NMZ532>537-221100-
EASTCENTRAL PLAINS

CITY           SKY/WX    TMP DP  RH WIND       PRES   REMARKS
TUCUMCARI      CLOUDY    62  56  80 SW7       30.06S
CANNON AFB     CLOUDY    58  56  92 SW5       30.11S
CLOVIS AIRPORT CLOUDY    57  54  88 SW6       30.13S

$$
NMZ028-029-538-221100-
SOUTHEAST PLAINS

CITY           SKY/WX    TMP DP  RH WIND       PRES   REMARKS
ROSWELL        MOCLDY    61  59  93 SE3       30.07F FOG
CARLSBAD       CLOUDY    63  60  90 SE6       30.05F FOG
HOBBS          MOCLDY    59  59 100 SE10      30.09F


$$



USA.gov is the U.S. government's official web portal to all federal, state and local government web resources and services.